Volver al catálogo

STARLINK-4791

ActivoComunicacionesVLEO
NORAD 53936·PAYLOAD·🇺🇸 United States

Lanzado Sep 24, 2022 desde Cape Canaveral Space Force Station

Loading…

Próximos Pases (próximas 24 horas)

TLE

ActualizadoSource: CelesTrak SupGP

Época: Sep 14, 2026, 21:57 UTC

1 53936C 22119BC  26257.91506944 -.00023110  00000+0 -74330-3 0  2576
2 53936  53.1570 155.7758 0001349  91.9188 171.4775 15.31707418    10

Sigue STARLINK-4791 en tiempo real con AllMySat

Download on the App Store